Location: Blanot
(47.1713°N, 4.2340°E)
Time: 10:49:10
(UTC+00:00)

RESURS DK-1 - Pass Details

Date: 14 July 2020
Orbit: 556 x 562 km, 69.9° (Epoch: 06 August)

Event Time Altitude Azimuth Distance (km) Brightness Sun altitude
Rises 23:57:33 0° 315° (NW) 2,754 6.5 -21.2°
Reaches altitude 10° 00:00:32 10° 292° (WNW) 1,854 5.2 -21.1°
Enters shadow 00:02:32 15° 263° (W) 1,562 4.5 -21.1°
